TimeART,TemperatureF,Dew PointF,Humidity,Sea Level PressureIn,VisibilityMPH,Wind Direction,Wind SpeedMPH,Gust SpeedMPH,PrecipitationIn,Events,Conditions,WindDirDegrees,DateUTC
12:00 AM,53.6,51.8,94,30.15,-9999.0,NE,4.6,-,N/A,,Clear,50,2013-07-17 03:00:00
2:00 AM,50.0,48.2,94,30.12,-9999.0,NE,5.8,-,N/A,,Clear,50,2013-07-17 05:00:00
3:00 AM,49,48,97,30.08,12,NE,8.9,,,,,50,2013-07-17 06:00:00
3:00 AM,50.0,48.2,94,30.12,-9999.0,NE,4.6,-,N/A,,Clear,50,2013-07-17 06:00:00
4:00 AM,48.2,48.2,100,30.09,-9999.0,NE,5.8,-,N/A,,Clear,50,2013-07-17 07:00:00
5:00 AM,46.4,46.4,100,30.09,-9999.0,NE,5.8,-,N/A,,Clear,50,2013-07-17 08:00:00
6:00 AM,44.6,44.6,100,29.80,4.3,NE,5.8,-,N/A,,Unknown,50,2013-07-17 09:00:00
7:00 AM,44.6,44.6,100,30.12,-9999.0,NE,6.9,-,N/A,,Clear,50,2013-07-17 10:00:00
8:00 AM,46.4,46.4,100,30.12,-9999.0,NE,10.4,-,N/A,,Clear,50,2013-07-17 11:00:00
9:00 AM,50,49,95,30.11,12,NE,20.1,,,,,50,2013-07-17 12:00:00
9:00 AM,50.0,48.2,94,30.12,-9999.0,NE,10.4,-,N/A,,Clear,50,2013-07-17 12:00:00
10:00 AM,55.4,48.2,77,30.12,-9999.0,NE,9.2,-,N/A,,Clear,50,2013-07-17 13:00:00
11:00 AM,60.8,53.6,77,30.12,-9999.0,NNE,9.2,-,N/A,,Clear,20,2013-07-17 14:00:00
12:00 PM,64.4,53.6,68,30.09,-9999.0,NNE,9.2,-,N/A,,Clear,20,2013-07-17 15:00:00
1:00 PM,71.6,57.2,60,30.06,-9999.0,NNE,5.8,-,N/A,,Clear,20,2013-07-17 16:00:00
2:00 PM,73.4,57.2,57,30.01,-9999.0,NE,4.6,-,N/A,,Clear,50,2013-07-17 17:00:00
3:00 PM,75,59,49,29.95,12,East,2.3,,,,,90,2013-07-17 18:00:00
3:00 PM,75.2,59.0,57,29.98,-9999.0,East,2.3,-,N/A,,Clear,90,2013-07-17 18:00:00
4:00 PM,75.2,60.8,61,29.95,-9999.0,North,2.3,-,N/A,,Clear,360,2013-07-17 19:00:00
5:00 PM,77.0,60.8,57,29.95,-9999.0,NE,3.5,-,N/A,,Clear,50,2013-07-17 20:00:00
6:00 PM,73.4,64.4,73,29.95,-9999.0,NE,3.5,-,N/A,,Clear,50,2013-07-17 21:00:00
7:00 PM,68.0,64.4,88,29.95,-9999.0,NE,3.5,-,N/A,,Clear,50,2013-07-17 22:00:00
8:00 PM,64.4,62.6,94,29.95,-9999.0,NE,4.6,-,N/A,,Clear,50,2013-07-17 23:00:00
9:00 PM,63,61,92,29.93,12,NE,4.6,,,,,50,2013-07-18 00:00:00
9:00 PM,62.6,60.8,94,29.95,-9999.0,NE,4.6,-,N/A,,Clear,50,2013-07-18 00:00:00
10:00 PM,60.8,60.8,100,29.95,-9999.0,NE,5.8,-,N/A,,Clear,50,2013-07-18 01:00:00
11:00 PM,60.8,59.0,94,29.95,-9999.0,NE,8.1,-,N/A,,Clear,50,2013-07-18 02:00:00